• In Netherlands
  • List of Countries
  • For 7 days
  • Water Temperature
  • Satellite Maps
  • Weather Map
  • Weather Widgets
  • user-avatar
    Login

    Hourly Weather Kiustendil

    Today, 27 February, Monday

    Time Temperature Precipitation Wind Pressure Humidity
    00:00 -4°C° 0 mm 0 mps 623 mmHg 94%
    01:00 -4°C° 0 mm 0 mps 623 mmHg 94%
    02:00 -4°C° 0 mm 0 mps 622 mmHg 94%
    03:00 -4°C° 0 mm 0 mps 622 mmHg 94%
    04:00 -5°C° 0 mm 0 mps 622 mmHg 94%
    05:00 -4°C° 0 mm 0 mps 622 mmHg 94%
    06:00 -3°C° 0 mm 0 mps 622 mmHg 93%
    07:00 -3°C° 0 mm 0 mps 622 mmHg 93%
    08:00 0°C° 0 mm 0 mps 623 mmHg 83%
    09:00 +3°C° 0 mm 0 mps 624 mmHg 72%
    10:00 +6°C° 0 mm 0 mps 626 mmHg 62%
    11:00 +6°C° 0 mm 0 mps 626 mmHg 59%
    12:00 +7°C° 0 mm 0 mps 626 mmHg 55%
    13:00 +9°C° 0 mm 1 mps 626 mmHg 52%
    14:00 +9°C° 0 mm 1 mps 625 mmHg 55%
    15:00 +8°C° 0 mm 1 mps 625 mmHg 58%
    16:00 +8°C° 0 mm 1 mps 624 mmHg 61%
    17:00 +6°C° 0 mm 1 mps 624 mmHg 69%
    18:00 +4°C° 0 mm 1 mps 623 mmHg 77%
    19:00 +2°C° 0 mm 1 mps 623 mmHg 84%
    20:00 +1°C° 0 mm 1 mps 622 mmHg 86%
    21:00 +1°C° 0 mm 1 mps 622 mmHg 88%
    22:00 +1°C° 0 mm 1 mps 622 mmHg 89%
    23:00 0°C° 0 mm 1 mps 622 mmHg 90%

    Tomorrow, 28 February, Tuesday

    Time Temperature Precipitation Wind Pressure Humidity
    00:00 0°C° 0 mm 1 mps 622 mmHg 91%
    01:00 -1°C° 0 mm 1 mps 622 mmHg 92%
    02:00 -1°C° 0 mm 1 mps 621 mmHg 93%
    03:00 -1°C° 0 mm 1 mps 621 mmHg 93%
    04:00 -2°C° 0 mm 1 mps 621 mmHg 94%
    05:00 -1°C° 0 mm 1 mps 621 mmHg 93%
    06:00 -1°C° 0 mm 1 mps 621 mmHg 92%
    07:00 0°C° 0 mm 1 mps 621 mmHg 92%
    08:00 +2°C° 0 mm 1 mps 622 mmHg 82%
    09:00 +4°C° 0 mm 1 mps 623 mmHg 73%
    10:00 +6°C° 0 mm 2 mps 624 mmHg 64%
    11:00 +7°C° 0 mm 2 mps 624 mmHg 60%
    12:00 +8°C° 0 mm 2 mps 624 mmHg 57%
    13:00 +9°C° 0 mm 2 mps 624 mmHg 53%
    14:00 +8°C° 0 mm 2 mps 623 mmHg 56%
    15:00 +8°C° 0 mm 2 mps 623 mmHg 59%
    16:00 +7°C° 0 mm 2 mps 622 mmHg 61%
    17:00 +5°C° 0 mm 2 mps 622 mmHg 69%
    18:00 +4°C° 0 mm 2 mps 621 mmHg 78%
    19:00 +2°C° 0 mm 2 mps 621 mmHg 86%
    20:00 +1°C° 0 mm 2 mps 621 mmHg 88%
    21:00 +1°C° 0 mm 2 mps 621 mmHg 90%
    22:00 -1°C° 0 mm 2 mps 620 mmHg 92%
    23:00 -1°C° 0 mm 2 mps 620 mmHg 93%

    Day after tomorrow, 1 March, Wednesday

    Time Temperature Precipitation Wind Pressure Humidity
    00:00 -1°C° 0 mm 2 mps 620 mmHg 94%
    01:00 -2°C° 0 mm 2 mps 620 mmHg 95%
    02:00 -2°C° 0 mm 2 mps 619 mmHg 95%
    03:00 -2°C° 0 mm 2 mps 619 mmHg 96%
    04:00 -2°C° 0 mm 2 mps 619 mmHg 96%
    05:00 -2°C° 0 mm 2 mps 619 mmHg 95%
    06:00 -2°C° 0 mm 2 mps 619 mmHg 95%
    07:00 -1°C° 0 mm 2 mps 619 mmHg 94%
    08:00 +2°C° 0 mm 2 mps 620 mmHg 83%
    09:00 +3°C° 0 mm 3 mps 620 mmHg 72%
    10:00 +5°C° 0 mm 4 mps 621 mmHg 62%
    11:00 +5°C° 0 mm 4 mps 620 mmHg 57%
    12:00 +6°C° 0 mm 4 mps 620 mmHg 53%
    13:00 +7°C° 0 mm 5 mps 619 mmHg 49%
    14:00 +6°C° 0.1 mm 4 mps 619 mmHg 54%
    15:00 +5°C° 0.1 mm 4 mps 619 mmHg 58%
    16:00 +4°C° 0.1 mm 3 mps 618 mmHg 63%
    17:00 +3°C° 0.9 mm 3 mps 618 mmHg 70%
    18:00 +3°C° 0.9 mm 2 mps 618 mmHg 77%
    19:00 +1°C° 0.9 mm 2 mps 618 mmHg 85%
    20:00 +1°C° 0.7 mm 2 mps 619 mmHg 84%
    21:00 -1°C° 0.7 mm 3 mps 619 mmHg 83%
    22:00 -2°C° 0.7 mm 3 mps 619 mmHg 82%
    23:00 -4°C° 0 mm 3 mps 619 mmHg 82%

    2 March, Thursday

    Time Temperature Precipitation Wind Pressure Humidity
    00:00 -4°C° 0 mm 3 mps 620 mmHg 82%
    01:00 -5°C° 0 mm 3 mps 620 mmHg 82%
    02:00 -5°C° 0 mm 3 mps 620 mmHg 83%
    03:00 -5°C° 0 mm 2 mps 620 mmHg 84%
    04:00 -6°C° 0 mm 2 mps 620 mmHg 85%
    05:00 -6°C° 0 mm 2 mps 620 mmHg 85%
    06:00 -6°C° 0 mm 2 mps 621 mmHg 84%
    07:00 -6°C° 0 mm 2 mps 621 mmHg 84%
    08:00 -4°C° 0 mm 2 mps 622 mmHg 76%
    09:00 -4°C° 0 mm 3 mps 623 mmHg 68%
    10:00 -1°C° 0 mm 3 mps 623 mmHg 60%
    11:00 0°C° 0 mm 3 mps 623 mmHg 56%
    12:00 +1°C° 0 mm 3 mps 623 mmHg 52%
    13:00 +2°C° 0 mm 3 mps 624 mmHg 48%
    14:00 +2°C° 0 mm 3 mps 624 mmHg 49%
    15:00 +3°C° 0 mm 2 mps 624 mmHg 50%
    16:00 +3°C° 0 mm 2 mps 624 mmHg 50%
    17:00 +2°C° 0 mm 1 mps 623 mmHg 56%
    18:00 0°C° 0 mm 1 mps 623 mmHg 62%
    19:00 -2°C° 0 mm 1 mps 623 mmHg 68%
    20:00 -2°C° 0 mm 1 mps 623 mmHg 68%
    21:00 -3°C° 0 mm 1 mps 623 mmHg 67%
    22:00 -3°C° 0 mm 1 mps 623 mmHg 67%
    23:00 -3°C° 0 mm 1 mps 623 mmHg 65%

    3 March, Friday

    Time Temperature Precipitation Wind Pressure Humidity
    00:00 -3°C° 0 mm 1 mps 623 mmHg 62%
    01:00 -4°C° 0 mm 1 mps 623 mmHg 60%
    02:00 -4°C° 0 mm 1 mps 623 mmHg 59%
    03:00 -4°C° 0 mm 1 mps 623 mmHg 58%
    04:00 -4°C° 0 mm 1 mps 623 mmHg 57%
    05:00 -3°C° 0 mm 1 mps 623 mmHg 57%
    06:00 -3°C° 0 mm 1 mps 623 mmHg 56%
    07:00 -2°C° 0 mm 1 mps 624 mmHg 55%
    08:00 0°C° 0 mm 0 mps 625 mmHg 49%
    09:00 +2°C° 0 mm 0 mps 626 mmHg 43%
    10:00 +5°C° 0 mm 0 mps 627 mmHg 37%
    11:00 +6°C° 0 mm 0 mps 627 mmHg 36%
    12:00 +7°C° 0 mm 0 mps 627 mmHg 35%
    13:00 +8°C° 0 mm 0 mps 627 mmHg 34%
    14:00 +8°C° 0 mm 1 mps 627 mmHg 38%
    15:00 +8°C° 0 mm 1 mps 627 mmHg 41%
    16:00 +7°C° 0 mm 1 mps 626 mmHg 44%
    17:00 +5°C° 0 mm 1 mps 626 mmHg 49%
    18:00 +3°C° 0 mm 1 mps 625 mmHg 53%
    19:00 +1°C° 0 mm 1 mps 625 mmHg 58%
    20:00 0°C° 0 mm 1 mps 625 mmHg 59%
    21:00 0°C° 0 mm 1 mps 625 mmHg 60%
    22:00 -3°C° 0 mm 2 mps 625 mmHg 61%
    23:00 -3°C° 0 mm 2 mps 625 mmHg 63%

    4 March, Saturday

    Time Temperature Precipitation Wind Pressure Humidity
    00:00 -3°C° 0 mm 2 mps 624 mmHg 64%
    01:00 -4°C° 0 mm 2 mps 624 mmHg 66%
    02:00 -2°C° 0 mm 1 mps 624 mmHg 68%
    03:00 -3°C° 0 mm 1 mps 624 mmHg 70%
    04:00 -3°C° 0 mm 1 mps 624 mmHg 73%
    05:00 -2°C° 0 mm 1 mps 624 mmHg 73%
    06:00 -2°C° 0 mm 1 mps 625 mmHg 72%
    07:00 -1°C° 0 mm 1 mps 625 mmHg 72%
    08:00 -1°C° 0 mm 2 mps 626 mmHg 63%
    09:00 +2°C° 0 mm 2 mps 627 mmHg 54%
    10:00 +4°C° 0 mm 3 mps 627 mmHg 44%
    11:00 +4°C° 0 mm 3 mps 627 mmHg 42%
    12:00 +5°C° 0 mm 3 mps 627 mmHg 40%
    13:00 +7°C° 0 mm 3 mps 627 mmHg 38%
    14:00 +5°C° 0 mm 3 mps 627 mmHg 40%
    15:00 +5°C° 0 mm 3 mps 626 mmHg 43%
    16:00 +6°C° 0 mm 2 mps 626 mmHg 46%
    17:00 +4°C° 0 mm 2 mps 625 mmHg 53%
    18:00 +2°C° 0 mm 2 mps 625 mmHg 59%
    19:00 -1°C° 0 mm 2 mps 624 mmHg 66%
    20:00 -2°C° 0 mm 2 mps 624 mmHg 68%
    21:00 -2°C° 0 mm 2 mps 624 mmHg 69%
    22:00 -3°C° 0 mm 2 mps 624 mmHg 71%
    23:00 -1°C° 0 mm 1 mps 624 mmHg 73%
    Show more